Tracking 25378 objects as of 22-Jan-2022
HD Live streaming from Space Station
objects crossing your sky now

STARLINK-1698

Track STARLINK-1698 now!
10-day predictions
STARLINK-1698 is classified as:


NORAD ID: 46547
Int'l Code: 2020-070R
Perigee: 553.6 km
Apogee: 555.2 km
Inclination: 53.1 °
Period: 95.6 minutes
Semi major axis: 6925 km
RCS: Unknown
Launch date: October 6, 2020
Source: United States (US)
Launch site: AIR FORCE EASTERN TEST RANGE (AFETR)
aabbcc
Your satellite tracking list
Your tracking list is empty




NASA's NSSDC Master Catalog

Two Line Element Set (TLE):
1 46547U 20070R   22021.48955451 -.00002709  00000-0 -16310-3 0  9997
2 46547  53.0534 107.1911 0001185  59.8615 300.2491 15.06385637 72188
Source of the keplerian elements: AFSPC